TimeCDT,TemperatureF,Dew PointF,Humidity,Sea Level PressureIn,VisibilityMPH,Wind Direction,Wind SpeedMPH,Gust SpeedMPH,PrecipitationIn,Events,Conditions,WindDirDegrees,DateUTC
12:56 AM,44.1,37.9,79,29.81,-9999.0,NNW,27.6,40.3,N/A,,Unknown,340,2012-10-04 05:56:00
1:56 AM,44.1,37.9,79,29.84,-9999.0,NNW,33.4,42.6,N/A,,Unknown,340,2012-10-04 06:56:00
2:56 AM,42.1,37.9,85,29.88,-9999.0,NNW,29.9,36.8,N/A,,Unknown,330,2012-10-04 07:56:00
3:56 AM,37.0,35.1,93,29.92,-9999.0,NNW,27.6,40.3,N/A,,Unknown,330,2012-10-04 08:56:00
4:56 AM,37.0,35.1,93,29.95,-9999.0,NNW,34.5,48.3,N/A,,Unknown,340,2012-10-04 09:56:00
5:56 AM,37.0,34.0,89,29.98,-9999.0,NNW,27.6,39.1,N/A,,Unknown,340,2012-10-04 10:56:00
6:56 AM,36.0,34.0,93,30.03,-9999.0,NW,24.2,39.1,N/A,,Unknown,320,2012-10-04 11:56:00
7:56 AM,36.0,34.0,93,30.05,-9999.0,NNW,28.8,36.8,N/A,,Unknown,330,2012-10-04 12:56:00
8:56 AM,37.0,33.1,86,30.09,-9999.0,NNW,29.9,39.1,N/A,,Unknown,330,2012-10-04 13:56:00
9:56 AM,39.0,33.1,79,30.12,-9999.0,NNW,27.6,36.8,0.01,,Unknown,340,2012-10-04 14:56:00
10:56 AM,41.0,30.9,67,30.14,-9999.0,NNW,26.5,40.3,N/A,,Unknown,330,2012-10-04 15:56:00
11:56 AM,39.9,35.1,83,30.15,-9999.0,NNW,27.6,35.7,N/A,,Unknown,340,2012-10-04 16:56:00
12:56 PM,44.1,33.1,65,30.17,-9999.0,NNW,27.6,38.0,N/A,,Unknown,340,2012-10-04 17:56:00
1:56 PM,41.0,35.1,79,30.19,-9999.0,NNW,26.5,34.5,N/A,,Unknown,340,2012-10-04 18:56:00
2:56 PM,43.0,33.1,68,30.19,-9999.0,NNW,23.0,38.0,N/A,,Unknown,340,2012-10-04 19:56:00
3:56 PM,44.1,33.1,65,30.21,-9999.0,NNW,25.3,33.4,0.01,,Unknown,330,2012-10-04 20:56:00
4:56 PM,45.0,32.0,60,30.22,-9999.0,NW,23.0,29.9,N/A,,Unknown,320,2012-10-04 21:56:00
5:56 PM,43.0,32.0,65,30.23,-9999.0,NNW,25.3,29.9,N/A,,Unknown,330,2012-10-04 22:56:00
6:56 PM,41.0,33.1,73,30.24,-9999.0,NNW,17.3,-,N/A,,Unknown,330,2012-10-04 23:56:00
7:56 PM,42.1,33.1,70,30.25,-9999.0,NNW,15.0,-,N/A,,Unknown,330,2012-10-05 00:56:00
8:56 PM,42.1,30.9,65,30.26,-9999.0,NNW,18.4,25.3,N/A,,Unknown,330,2012-10-05 01:56:00
9:56 PM,41.0,28.0,60,30.27,-9999.0,NW,18.4,24.2,N/A,,Unknown,320,2012-10-05 02:56:00
10:56 PM,39.9,27.0,60,30.27,-9999.0,NW,13.8,-,N/A,,Unknown,320,2012-10-05 03:56:00
11:56 PM,36.0,26.1,67,30.28,-9999.0,NW,13.8,-,N/A,,Unknown,310,2012-10-05 04:56:00